Location: Oriwa
(40.7500°S, 175.3333°E)
Time: 14:11:58
(UTC+00:00)

MOZ.5/SAFIR/RUBIN 5/SL-8 - Pass Details

Date: 03 February 2023
Orbit: 675 x 703 km, 98.2° (Epoch: 31 March)

Event Time Altitude Azimuth Distance (km) Brightness Sun altitude
Rises 14:41:06 0° 170° (S) 3,088 8.2 -25.5°
Reaches altitude 10° 14:43:22 10° 172° (S) 2,169 7.2 -25.2°
Maximum altitude 14:48:05 69° 254° (WSW) 751 3.8 -24.7°
Enters shadow 14:48:07 69° 256° (WSW) 751 3.8 -24.7°
